Погода Северо-Курильск

Погода Северо-Курильск : погода сейчас, прогноз погоды и архив. Всё, что Вы хотите узнать о погоде Северо-Курильск!

Хотите узнать прогноз погоды Северо-Курильск? Тогда Вам сюда: Погода Северо-Курильск

Поиск расширенной информации на нашем сайте:

Другие новости

Новости СМИ2

Главная страница сайта

Новости сайта

03.07.2017

Напоминаем, что на нашем специализированном сайте Метеоцентр.Азия вы можете получить высокодетализированные автоматические прогнозы погоды по пунктам России, СНГ и мира в авиационном формате (включающие направление и скорость ветра, видимость, явления погоды, количество и форму облачности, нижнюю и верхнюю границу облачности).


Погода Северо-Курильск - сегодня

Время (UTC), дата Ветер
(°,м/с) 
Видим.   Явления Облачность Т
(°С)
Тd
(°С)
f(%) Тe
(°С)
Pmin
(гПа)
dP
(гПа)
Po
(мм)
O2
(г/м3)
Тmin Tmax R s Состояние
почвы
15 14.02.18 230 (ЮЗ) 1{06}  4000 м  {ливн. осадки}  ясно 
-9.6 -16 60 -9  1001.4  0.1  749  314           
21 14.02.18 230 (ЮЗ) 3-5{06}  25000 м    10/10 1000 м 
[Sc]
-8.3 -13.8 64 -11  999.1  -1.1  747  312  -11.2    0.0  68  равномерный
сухой снег
100% 
00 15.02.18 360 (С) 1-6{06}  0200 м  ливневой снег  10/10 600 м кучево-дожд. 
[Cb cap]
-6.3 -8.2 86 -6  997.4  -1.7  746  308           
21 15.02.18 340 (С) 1-3{07}  26000 м    9/5 1000 м кучево-дожд., средняя 
[Cb cap|Ac lent]
-5.5 -11.9 61 -5  991.9  0.4  742  306  -8.2      73  равномерный
сухой снег
100% 
21 16.02.18 220 (ЮЗ) 2-6{11}  4200 м  слаб. ливневой снег  9/9 600 м кучево-дожд. 
[Cb cap]
-6.4 -11.6 67 -8  998.1  0.6  746  309  -6.5    0.7  69  равномерный
сухой снег
100% 
00 17.02.18 280 (З) 1-5{11}  4800 м  слаб. ливневой снег  10/10 600 м кучево-дожд. 
[Cb cap]
-4.9 -10 67 -4  998.8  0.7  747  307  -6.9         
21 17.02.18 260 (З) 5-11{11}  27000 м  {ливн. осадки}  8/5 600 м кучево-дожд., средняя 
[Cb cap|Ac trans]
-5.6 -13.4 54 -10  1001.5  -0.1  749  309  -6.3    0.9  70  равномерный
сухой снег
100% 
00 18.02.18 230 (ЮЗ) 6-10{12}  30000 м  позёмок{ливн. осадки}  6/6 600 м кучево-дожд. 
[Cb cap]
-4.6 -15 44 -9  1001.2  -0.3  749  308  -6.4         
21 18.02.18 280 (З) 5-12{13}  16000 м  слаб. ливневой снег  8/8 600 м кучево-дожд. 
[Cb cap]
-5.1 -12.4 57 -9  1000.6  0.8  748  308  -5.5    68  равномерный
сухой снег
100% 
00 19.02.18 260 (З) 4-9{14}  7000 м  слаб. ливневой снег  9/9 600 м кучево-дожд. 
[Cb cap]
-5.2 -12.5 56 -8  1001.4  0.8  749  309  -5.8         
21 19.02.18 230 (ЮЗ) 1-5{10}  9000 м  слаб. ливневой снег  9/9 600 м кучево-дожд. 
[Cb cap]
-6.4 -11.8 65 -6  1004.8  1.2  751  311  -6.4    74  равномерный
сухой снег
100% 
00 20.02.18 230 (ЮЗ) 4-8{12}  23000 м  {ливн. осадки}  9/9 600 м кучево-дожд. 
[Cb cap]
-5.9 -12.6 59 -9  1006.1  1.2  752  311  -6.7         
15 20.02.18 240 (ЮЗ) 3-5{06}  4000 м    ясно 
-8.8 -18.7 45 -12  1008.7  -0.5  754  315           
18 20.02.18 230 (ЮЗ) 4-6{07}  4000 м    ясно 
-8.2 -15.8 54 -12  1008.3  -0.4  754  315           
21 20.02.18 220 (ЮЗ) 2-3{06}  50000 м    8/3 1000 м средняя, верхняя 
[Sc|Ac As|Cc]
-7.8 -14.7 58 -9  1008  -0.3  754  314  -11.2    0.0  72  равномерный
сухой снег
100% 
00 21.02.18 200 (Ю) 2-4{04}  13000 м  слаб. ливневой снег  10/10 600 м кучево-дожд. 
[Cb cap]
-4 -10.6 60 -5  1007.7  -0.3  753  309           
12 21.02.18 260 (З) 2-4{07}  4000 м    ясно 
-8.5 -16.7 52 -10  1010  0.5  755  315           
15 21.02.18 250 (З) 2-2{04}  4000 м    ясно 
-8.6 -16.5 53 -10  1008.7  -1.3  754  315           
18 21.02.18 тихо () {04}  4000 м    5/5 1000 м 
[Sc]
-7 -13.7 59 -7  1007  -1.7  753  313           
21 21.02.18 310 (СЗ) 2-5{06}  65000 м    10/4 600 м средняя 
[Sc|Ac As]
-5.9 -11.4 65 -7  1005.5  -1.4  752  311  -9.3      71  равномерный
сухой снег
100% 
00 22.02.18 350 (С) 7-13{13}  2100 м  слаб. снег  10/10 600 м 
[Frnb|Ns]
-4.6 -6.2 89 -9  1002.2  -3.3  749  308           
09 22.02.18 310 (СЗ) 5-11{12}  1000 м  ливневой снег  10/10 600 м кучево-дожд. 
[Cb cap]
-4.1 -6.8 81 -8  1003.3  2.5  750  308    -2.5     
21 22.02.18 250 (З) 11-20{25}  2300 м  слаб. ливневой снег  6/6 600 м кучево-дожд. 
[Cb cap]
-9.2 -11.7 82 -17  1013.9  3.8  758  317  -9.2    19  74  неравномерный
сухой снег
100% 
00 23.02.18 250 (З) 10-20{23}  0200 м  ливневой снег  8/8 600 м кучево-дожд. 
[Cb cap]
-8.8 -11.5 81 -16  1015.4  1.5  759  317           
21 23.02.18 130 (ЮВ) 3-6{14}  29000 м    5/3 1000 м верхняя 
[Sc|Ci fib]
-6.9 -15.4 51 -10  1024.3  0.9  766  318  -8.7      74  равномерный
сухой снег
100% 
Время (UTC), дата Ветер
(°,м/с) 
Видим.   Явления Облачность Т
(°С)
Тd
(°С)
f(%) Тe
(°С)
Pmin
(гПа)
dP
(гПа)
Po
(мм)
O2
(г/м3)
Тmin Tmax R s Состояние
почвы

Для получения пояснительной информации подведите курсор к названию столбца.

ПОГОДА Северо-Курильск - архив

Всё, что Вы хотите узнать о погоде Северо-Курильск - удобно и подробно!

Выберите нужную дату (начиная с 1 января 2015* года) и нажмите кнопку "Найти".
Будут отображены архивные сводки погоды по пункту Северо-Курильск, начиная с указанной даты.


Отображать данные в формате CSV (для использования в таблицах Excel)


Внимание! Наш архив погоды предназначен исключительно для личного некоммерческого использования в познавательных целях. Если Вам необходимы официальные справки о состоянии погоды (для производственных, юридических, коммерческих и т.п. целей), обращайтесь в органы Росгидромета.

*Примечание: данная дата относится к архиву по метеостанциям СССР (Россия, СНГ, Балтия).
Архив по метеостанциям Зарубежной Европы и Азии (кроме Китая) хранится 10 дней, по другим регионам земного шара (Китай, Африка, Америка, Австралия, Океания) - 1 день.

Северо-Курильск - район местоположения метеостанции


Название, широта, долгота, высота метеостанции:
Северо-Курильск 50.7°ш. 156.1°д. 23 м над ур. моря [Российская Федерация]

Дополнительная информация

В oтличие oт бoльшинства пoгoдных сайтoв мы публикуем пoдрoбную метеoинфoрмацию в детальнoм прoфессиoнальнoм фoрмате.

Характеристики температуры и влажнoсти вoздуха измеряются на высoте 2 м в тени вдали oт зданий и деревьев.
Скoрoсть ветра измеряется на высoте 10 м (на урoвне рoста челoвека скoрoсть ветра ниже в 1.5-2 раза). Если метеoстанция нахoдится в гoрoде или в лесу, тo скoрoсть ветра занижена на 2-4 м/с пo сравнению с oткрытым местoм. Скoрoсть ветра над акватoриями крупных рек и oзёр, а также на вершинах хoлмoв на 2-5 м/с выше, чем в oбычных услoвиях.
Атмoсфернoе давление в разных тoчках местнoсти мoжет значительнo oтличаться oт давления на метеoстанции, в зависимoсти oт услoвий рельефа (при пoдъёме на 10 м давление пoнижается примернo на 1 мм рт.ст.).